Regional Weather Roundup
Issued by NWS Glasgow, MT

Home | Current Version | Previous Version | Text Only | Print | Product List | Glossary On
Versions: 1 2 3 4 5 6 7 8 9 10 11 12 13 14 15 16 17 18 19 20 21 22 23 24 25 26 27 28 29 30 31 32 33 34 35 36 37 38 39 40 41 42 43 44 45 46 47 48 49 50
000
ASUS45 KGGW 180615
RWRGGW
HOURLY REGIONAL WEATHER ROUNDUP FOR NORTHEAST MONTANA
NATIONAL WEATHER SERVICE GLASGOW MONTANA
1200 AM MDT WED OCT 18 2017

NOTE: "FAIR" INDICATES FEW OR NO CLOUDS BELOW 12,000 FEET WITH NO
SIGNIFICANT WEATHER AND/OR OBSTRUCTIONS TO VISISBILITY.

NORTHEAST MONTANA


CITY           SKY/WX    TMP DP  RH WIND       PRES   REMARKS
GLASGOW        PTCLDY    55  35  47 NW37G51   29.69R
6HR MIN TEMP:  55; 6HR MAX TEMP:  72;

WOLF POINT     PTCLDY    67  26  21 NW37G53   29.62R
JORDAN           N/A     58  26  29 NW14      29.69R
WINNETT          N/A     64  23  21 W12G26      N/A
SIDNEY         MOCLDY    66  25  21 W25G33    29.58R
GLENDIVE       CLOUDY    63  23  21 W15G26    29.65R
SCOBEY           N/A     53  31  43 W37G45    29.64R

FORT PECK REPORTS


CITY           SKY/WX    TMP DP  RH WIND       PRES   REMARKS
FORT PECK        N/A     60  30  32 W32G51      N/A
THE PINES        N/A     63  27  25 NW18G35     N/A

SOUTHEAST MONTANA


CITY           SKY/WX    TMP DP  RH WIND       PRES   REMARKS
BILLINGS       CLOUDY    65  18  16 W16       29.75R
MILES CITY     CLOUDY    60  25  26 SW13      29.69R
BAKER          CLOUDY    66  19  16 SW20G28   29.68R
LIVINGSTON     CLEAR     60  19  20 SW20      29.90R

CENTRAL MONTANA


CITY           SKY/WX    TMP DP  RH WIND       PRES   REMARKS
HAVRE          CLOUDY    45  34  65 NW20G29   29.81R
LEWISTOWN      CLOUDY    58  24  27 W13G25    29.84R
GREAT FALLS    CLOUDY    57  28  33 W24G38    29.84R
CUT BANK       CLOUDY    43  21  41 N12       29.85R
HELENA         CLOUDY    61  26  26 W17G36    29.89S
BUTTE          CLOUDY    53  22  29 W12G23    30.05R
BOZEMAN        CLEAR     50  22  33 W7        29.96R

WESTERN MONTANA


CITY           SKY/WX    TMP DP  RH WIND       PRES   REMARKS
MISSOULA       MOCLDY    55  37  50 SW10      30.01S
KALISPELL      NOT AVBL

NORTH DAKOTA


CITY           SKY/WX    TMP DP  RH WIND       PRES   REMARKS
WILLISTON      PTCLDY    63  25  23 SW14G23   29.54R
DICKINSON      MOCLDY    58  25  28 S15       29.60F
MINOT          CLOUDY    64  26  23 S12G20    29.48S
BISMARCK       MOCLDY    60  26  27 S7        29.61F

SOUTHERN SASKATCHEWAN


CITY           SKY/WX    TMP DP  RH WIND       PRES   REMARKS
REGINA         PTCLDY    50  37  62 W39G56    29.42R
ESTEVAN        PTCLDY    63  34  34 W46G62    29.48R DUST
SWIFT CURRENT  CLEAR     39  36  87 W28G38    29.56S




USA.gov is the U.S. government's official web portal to all federal, state and local government web resources and services.